Regional Weather Roundup
Issued by NWS New Orleans/Baton Rouge, LA

Home | Current Version | Previous Version | Graphics & Text | Print | Product List | Glossary On
Versions: 1 2 3 4 5 6 7 8 9 10 11 12 13 14 15 16 17 18 19 20 21 22 23 24 25 26 27 28 29 30 31 32 33 34 35 36 37 38 39 40 41 42 43 44 45 46 47 48 49 50
177
ASUS44 KLIX 230005
RWRLIX
NEW ORLEANS REGIONAL WEATHER ROUNDUP
NATIONAL WEATHER SERVICE NEW ORLEANS LA
700 PM CDT MON SEP 22 2014

NOTE: "FAIR" INDICATES FEW OR NO CLOUDS BELOW 12,000 FEET WITH NO
      SIGNIFICANT WEATHER AND/OR OBSTRUCTIONS TO VISIBILITY.
      SKY/WX - SKY CONDITION AND SIGNIFICANT WEATHER.
      TMP - AIR TEMPERATURE.     DP    - DEWPOINT TEMPERATURE.
      RH  - RELATIVE HUMIDITY.   PRES  - PRESSURE.
      HI  - HEAT INDEX.          WCI   - WIND CHILL INDEX.

*  THESE STATIONS ARE NOT NWS OR FAA STATIONS AND ARE NOT UNDER
   NWS QUALITY CONTROL.

LAZ038-040-048-061>063-065>067-069-230100-
SOUTHEAST LOUISIANA

CITY           SKY/WX    TMP DP  RH WIND       PRES   REMARKS
N.O. AUDUBON     N/A     85  70  61 MISG        N/A
6HR MIN TEMP:  84; 6HR MAX TEMP:  93;

N.O. INTL ARPT PTCLDY    84  65  52 NE16      29.98R
6HR MIN TEMP:  84; 6HR MAX TEMP:  90;

N.O. LAKEFRONT PTCLDY    84  68  58 N20       29.99R
6HR MIN TEMP:  84; 6HR MAX TEMP:  89;

N.O. DOWNTOWN*   N/A     84  64  51 N8G17     29.99R
6HR MIN TEMP:  84; 6HR MAX TEMP:  90;

SLIDELL        CLEAR     78  65  63 N5        29.99R
6HR MIN TEMP:  78; 6HR MAX TEMP:  90;

BATON ROUGE    CLEAR     79  60  52 CALM      30.02R
6HR MIN TEMP:  79; 6HR MAX TEMP:  89;

BOOTHVILLE     PTCLDY    83  73  72 NE6       29.98R
6HR MIN TEMP:  83; 6HR MAX TEMP:  87;

BELLE CHASSE   MOCLDY    81  68  64 NE9       29.98R
6HR MIN TEMP:  80; 6HR MAX TEMP:  91; 6HR PCP: TRACE;

BOGALUSA*        N/A     77  56  48 NE5       30.03S
6HR MIN TEMP:  77; 6HR MAX TEMP:  88;

GALLIANO*      NOT AVBL
NEW ROADS*       N/A     78  59  52 N9        30.03S
6HR MIN TEMP:  78; 6HR MAX TEMP:  87;

GONZALES*        N/A     82  65  57 N5        30.00R
6HR MIN TEMP:  82; 6HR MAX TEMP:  89;

HAMMOND*       CLEAR     79  55  44 N7        30.03R
HOUMA*         PTCLDY    81  64  57 N6        29.97S
PORT FOURCHON* CLOUDY    84  72  65 E6        30.00R

$$

MSZ070-080>082-230100-
SOUTHERN MISSISSIPPI

CITY           SKY/WX    TMP DP  RH WIND       PRES   REMARKS
MCCOMB         CLEAR     78  52  40 NE3       30.05R
6HR MIN TEMP:  78; 6HR MAX TEMP:  87;

GULFPORT       PTCLDY    81  65  58 NE3       29.98R
6HR MIN TEMP:  76; 6HR MAX TEMP:  90; 6HR PCP:  0.40;

BILOXI         CLEAR     79  66  64 NE5       29.99R
6HR MIN TEMP:  77; 6HR MAX TEMP:  90; 6HR PCP:  0.41;

PASCAGOULA     CLEAR     75  66  73 CALM      29.99R
6HR MIN TEMP:  75; 6HR MAX TEMP:  90; 6HR PCP: TRACE;

STENNIS ARPT*  CLEAR     77  64  65 N5        29.99R

$$

COASTAL OBSERVATIONS
LAKE AND NEARSHORE STATIONS

STATION/POSITION TIME  TEMP    WIND        PRES    WAVE
                       AIR SEA DIR/SP/G            HT/PER
                 (UTC) (F)     (DEG/KT/KT) (MB)    (FT/S)
PASCAGOULA       0000   82      20/  8/ 11 1014.9
WAVELAND YACHT   0000   83      30/  9/ 10 1014.7
GRAND ISLE       0000   83 84   50/ 10/ 13 1015.3
SOUTHWEST PASS   0000   85 90   80/ 10/ 12 1014.8
NEW CANAL        0000   84 83   30/ 18/ 21 1015.7
SHELL BEACH      0000   83 81   20/ 15/ 24 1014.9

OFFSHORE STATIONS

STATION/POSITION TIME  TEMP    WIND        PRES    WAVE
                       AIR SEA DIR/SP/G            HT/PER
                 (UTC) (F)     (DEG/KT/KT) (MB)    (FT/S)

$$




USA.gov is the U.S. government's official web portal to all federal, state and local government web resources and services.